TimeCST,TemperatureF,Dew PointF,Humidity,Sea Level PressureIn,VisibilityMPH,Wind Direction,Wind SpeedMPH,Gust SpeedMPH,PrecipitationIn,Events,Conditions,WindDirDegrees,DateUTC
12:56 AM,36.0,19.9,52,29.99,10.0,South,11.5,-,N/A,,Clear,190,2012-12-13 06:56:00
1:56 AM,36.0,19.9,52,29.99,10.0,SSW,6.9,-,N/A,,Clear,200,2012-12-13 07:56:00
2:56 AM,36.0,19.0,50,30.00,10.0,South,6.9,-,N/A,,Clear,190,2012-12-13 08:56:00
3:56 AM,35.1,19.9,54,29.99,10.0,SSW,9.2,-,N/A,,Clear,200,2012-12-13 09:56:00
4:56 AM,34.0,19.0,54,29.98,10.0,South,4.6,-,N/A,,Clear,190,2012-12-13 10:56:00
5:56 AM,33.1,19.9,59,29.98,10.0,South,5.8,-,N/A,,Scattered Clouds,180,2012-12-13 11:56:00
6:56 AM,33.1,19.0,56,29.99,10.0,SSW,5.8,-,N/A,,Mostly Cloudy,200,2012-12-13 12:56:00
8:56 AM,28.0,17.1,63,30.00,10.0,South,3.5,-,N/A,,Clear,180,2012-12-13 14:56:00
9:56 AM,30.9,17.1,57,30.02,10.0,Calm,Calm,-,N/A,,Clear,0,2012-12-13 15:56:00
10:56 AM,33.1,18.0,54,30.02,10.0,SSW,4.6,-,N/A,,Clear,200,2012-12-13 16:56:00
11:56 AM,36.0,18.0,48,30.01,10.0,WSW,6.9,-,N/A,,Clear,240,2012-12-13 17:56:00
12:56 PM,36.0,19.0,50,30.01,10.0,West,5.8,-,N/A,,Clear,270,2012-12-13 18:56:00
1:56 PM,36.0,19.0,50,30.01,10.0,SW,6.9,-,N/A,,Clear,220,2012-12-13 19:56:00
2:56 PM,35.1,19.0,52,30.04,10.0,WSW,4.6,-,N/A,,Clear,250,2012-12-13 20:56:00
3:56 PM,34.0,18.0,52,30.04,10.0,WSW,3.5,-,N/A,,Clear,250,2012-12-13 21:56:00
6:56 PM,23.0,18.0,81,30.10,10.0,Calm,Calm,-,N/A,,Clear,0,2012-12-14 00:56:00
7:56 PM,19.0,17.1,92,30.11,7.0,Calm,Calm,-,N/A,,Clear,0,2012-12-14 01:56:00
8:56 PM,19.0,16.0,88,30.12,9.0,Calm,Calm,-,N/A,,Clear,0,2012-12-14 02:56:00
9:56 PM,18.0,15.1,88,30.14,6.0,Calm,Calm,-,N/A,,Clear,0,2012-12-14 03:56:00
10:56 PM,16.0,14.0,92,30.14,9.0,NNE,3.5,-,N/A,,Clear,30,2012-12-14 04:56:00
11:56 PM,16.0,15.1,96,30.15,7.0,ENE,3.5,-,N/A,,Clear,70,2012-12-14 05:56:00